JG6YPS-13 Weather Reports


time (UTC)temp
F
wind
direction
speed
knots
gust
knots
rain 1hr
in
rain 24hr
in
rain mn
in
humidity
%
barometer
mb
20260509090344 71 225 0.9 1.7 0.00 0.00 0.00 34 1016.5
20260509085344 72 0 0.0 1.7 0.00 0.00 0.00 32 1016.5
20260509084344 73 270 0.0 0.9 0.00 0.00 0.00 29 1016.4
20260509083344 73 0 0.9 4.3 0.00 0.00 0.00 28 1016.3
20260509082344 74 225 0.9 2.6 0.00 0.00 0.00 27 1016.2
20260509081344 73 225 1.7 3.5 0.00 0.00 0.00 30 1016.2
20260509080345 74 180 0.0 2.6 0.00 0.00 0.00 29 1016.0
20260509075345 74 270 0.9 1.7 0.00 0.00 0.00 29 1015.9
20260509074345 75 0 0.0 1.7 0.00 0.00 0.00 30 1015.9
20260509073345 74 225 0.0 4.3 0.00 0.00 0.00 29 1015.9
20260509072345 75 315 0.0 3.5 0.00 0.00 0.00 31 1015.9
20260509071346 76 270 0.9 3.5 0.00 0.00 0.00 31 1015.9
20260509070346 77 0 0.0 1.7 0.00 0.00 0.00 31 1015.8
20260509065346 76 315 0.9 2.6 0.00 0.00 0.00 31 1015.9
20260509064346 76 270 0.9 2.6 0.00 0.00 0.00 31 1015.9
20260509063346 77 270 1.7 7.0 0.00 0.00 0.00 31 1016.0
20260509062346 77 270 0.9 1.7 0.00 0.00 0.00 32 1015.9
20260509061346 78 270 1.7 7.0 0.00 0.00 0.00 32 1015.9
20260509060345 80 315 0.9 4.3 0.00 0.00 0.00 32 1016.0
20260509055345 82 135 0.9 10.4 0.00 0.00 0.00 32 1015.9
20260509054345 83 180 1.7 4.3 0.00 0.00 0.00 26 1016.0
20260509053345 83 315 0.0 1.7 0.00 0.00 0.00 31 1016.1
20260509052344 86 315 0.9 3.5 0.00 0.00 0.00 26 1016.1
20260509051344 92 270 0.0 2.6 0.00 0.00 0.00 23 1016.3
20260509050343 92 0 0.0 2.6 0.00 0.00 0.00 24 1016.2
20260509045342 90 315 0.9 2.6 0.00 0.00 0.00 14 1016.4
20260509044342 92 203 0.9 2.6 0.00 0.00 0.00 21 1016.6
20260509043341 91 0 0.9 1.7 0.00 0.00 0.00 22 1016.9
20260509042340 88 135 0.9 4.3 0.00 0.00 0.00 20 1017.0
20260509041340 83 293 0.0 3.5 0.00 0.00 0.00 33 1017.2
20260509040339 87 315 1.7 4.3 0.00 0.00 0.00 25 1017.3
20260509035339 86 225 0.0 2.6 0.00 0.00 0.00 27 1017.4
20260509034338 87 0 0.0 2.6 0.00 0.00 0.00 25 1017.5
20260509033337 87 180 1.7 4.3 0.00 0.00 0.00 20 1017.5
20260509032337 88 315 0.9 1.7 0.00 0.00 0.00 21 1017.5
20260509031336 86 225 0.0 2.6 0.00 0.00 0.00 25 1017.6
20260509030336 88 180 1.7 4.3 0.00 0.00 0.00 28 1017.6
20260509025335 84 0 0.9 3.5 0.00 0.00 0.00 30 1017.8
20260509024335 83 135 0.0 2.6 0.00 0.00 0.00 34 1017.9
20260509023334 84 135 0.0 0.9 0.00 0.00 0.00 36 1018.1
20260509022334 78 203 1.7 4.3 0.00 0.00 0.00 34 1018.3
20260509021334 80 338 0.9 2.6 0.00 0.00 0.00 34 1018.3
20260509020334 75 338 0.0 2.6 0.00 0.00 0.00 28 1018.5
20260509015333 76 315 0.0 1.7 0.00 0.00 0.00 34 1018.5
20260509014333 76 0 0.9 1.7 0.00 0.00 0.00 35 1018.6
20260509013334 72 315 0.0 1.7 0.00 0.00 0.00 44 1018.7
20260509012334 71 0 0.9 1.7 0.00 0.00 0.00 45 1018.7
20260509011334 71 0 0.0 1.7 0.00 0.00 0.00 49 1018.7
20260509010334 73 315 0.0 1.7 0.00 0.00 0.00 46 1018.8
20260509005334 73 315 0.0 2.6 0.00 0.00 0.00 46 1018.9
20260509004334 73 45 0.0 1.7 0.00 0.00 0.00 46 1018.9
20260509003334 71 0 0.0 2.6 0.00 0.00 0.00 53 1019.1
20260509002334 69 315 0.0 2.6 0.00 0.00 0.00 53 1019.0
20260509001334 68 315 0.9 1.7 0.00 0.00 0.00 52 1019.1
20260509000335 65 0 0.0 2.6 0.00 0.00 0.00 53 1019.1
20260508235335 65 315 0.9 1.7 0.00 0.00 0.00 57 1019.1
20260508234335 67 90 0.0 1.7 0.00 0.00 0.00 51 1018.9
20260508233336 68 315 0.0 1.7 0.00 0.00 0.00 58 1019.1
20260508232336 63 270 0.0 1.7 0.00 0.00 0.00 66 1019.1
20260508231337 64 315 0.0 1.7 0.00 0.00 0.00 66 1019.1
20260508230337 63 225 0.0 1.7 0.00 0.00 0.00 69 1019.2
20260508225338 61 338 0.0 0.9 0.00 0.00 0.00 70 1019.1
20260508224338 60 315 0.0 0.9 0.00 0.00 0.00 73 1019.0
20260508223339 58 315 0.0 1.7 0.00 0.00 0.00 75 1018.9
20260508222339 58 315 0.0 1.7 0.00 0.00 0.00 76 1018.7
20260508221340 58 315 0.0 0.9 0.00 0.00 0.00 73 1018.6
20260508220341 57 315 0.0 0.9 0.00 0.00 0.00 77 1018.6
20260508215342 58 315 0.0 0.0 0.00 0.00 0.00 75 1018.5
20260508214342 58 135 0.0 0.0 0.00 0.00 0.00 71 1018.5
20260508213343 57 0 0.0 0.0 0.00 0.00 0.00 75 1018.3
20260508212344 54 315 0.0 0.0 0.00 0.00 0.00 79 1018.1
20260508211345 54 180 0.0 0.9 0.00 0.00 0.00 79 1018.1
20260508210346 53 180 0.0 1.7 0.00 0.00 0.00 80 1017.9
20260508205347 53 180 0.0 0.0 0.00 0.00 0.00 80 1017.9
20260508204348 52 135 0.0 0.9 0.00 0.00 0.00 81 1017.6
20260508203350 52 45 0.0 0.0 0.00 0.00 0.00 81 1017.4
20260508202351 52 135 0.0 0.0 0.00 0.00 0.00 80 1017.2
20260508201351 52 90 0.0 0.0 0.00 0.00 0.00 80 1017.1
20260508200353 52 45 0.0 0.0 0.00 0.00 0.00 81 1017.1
20260508195354 52 0 0.0 0.9 0.00 0.00 0.00 80 1017.1
20260508194355 53 45 0.0 0.0 0.00 0.00 0.00 80 1017.1
20260508193356 53 135 0.0 0.9 0.00 0.00 0.00 79 1017.0
20260508192357 53 0 0.0 0.9 0.00 0.00 0.00 78 1016.8
20260508191358 53 45 0.0 0.0 0.00 0.00 0.00 77 1016.9
20260508190359 54 45 0.0 1.7 0.00 0.00 0.00 76 1017.0
20260508185400 54 315 0.0 0.9 0.00 0.00 0.00 76 1016.9
20260508184401 54 45 0.0 0.9 0.00 0.00 0.00 74 1016.9
20260508183403 55 135 0.9 2.6 0.00 0.00 0.00 70 1016.8
20260508182404 55 135 0.9 3.5 0.00 0.00 0.00 68 1016.7
20260508181405 56 180 1.7 2.6 0.00 0.00 0.00 65 1016.6
20260508180406 56 90 0.0 0.9 0.00 0.00 0.00 63 1016.4
20260508175407 56 180 1.7 3.5 0.00 0.00 0.00 64 1016.4
20260508174408 56 180 1.7 3.5 0.00 0.00 0.00 65 1016.4
20260508173409 56 180 1.7 2.6 0.00 0.00 0.00 66 1016.4
20260508172411 56 203 1.7 4.3 0.00 0.00 0.00 65 1016.4
20260508171412 56 203 1.7 4.3 0.00 0.00 0.00 65 1016.5
20260508170413 56 180 2.6 6.1 0.00 0.00 0.00 65 1016.7
20260508165414 56 180 1.7 5.2 0.00 0.00 0.00 65 1016.8
20260508164415 56 180 0.0 2.6 0.00 0.00 0.00 68 1016.8
20260508163416 56 180 0.9 3.5 0.00 0.00 0.00 67 1016.7
20260508162417 55 225 1.7 4.3 0.00 0.00 0.00 68 1016.7
20260508161419 55 180 0.9 4.3 0.00 0.00 0.00 70 1016.8
20260508160420 55 180 0.9 2.6 0.00 0.00 0.00 71 1016.7
20260508155421 55 180 1.7 3.5 0.00 0.00 0.00 70 1016.6
20260508154422 55 180 1.7 4.3 0.00 0.00 0.00 70 1016.7
20260508153423 56 180 0.9 2.6 0.00 0.00 0.00 70 1016.7
20260508152424 56 180 0.9 2.6 0.00 0.00 0.00 68 1016.8
20260508151425 56 180 1.7 4.3 0.00 0.00 0.00 69 1016.7
20260508150426 57 180 0.9 1.7 0.00 0.00 0.00 69 1016.7
20260508145427 58 180 0.9 1.7 0.00 0.00 0.00 66 1016.7
20260508144428 58 180 0.9 1.7 0.00 0.00 0.00 67 1016.8
20260508143428 58 135 0.0 1.7 0.00 0.00 0.00 67 1016.7
20260508142429 58 135 0.0 1.7 0.00 0.00 0.00 65 1016.7
20260508141430 58 180 0.0 0.9 0.00 0.00 0.00 68 1016.7
20260508140432 59 180 0.9 1.7 0.00 0.00 0.00 67 1016.7
20260508135432 59 45 0.0 1.7 0.00 0.00 0.00 66 1016.8
20260508134433 58 180 0.0 1.7 0.00 0.00 0.00 70 1016.7
20260508133434 58 180 0.0 1.7 0.00 0.00 0.00 71 1016.7
20260508132435 59 180 0.0 0.0 0.00 0.00 0.00 69 1016.6
20260508131435 59 225 0.0 0.0 0.00 0.00 0.00 69 1016.7
20260508130436 60 180 0.0 0.0 0.00 0.00 0.00 67 1016.7
20260508125437 60 225 0.0 0.0 0.00 0.00 0.00 65 1016.5
20260508124438 60 225 0.0 0.0 0.00 0.00 0.00 65 1016.5
20260508123438 60 135 0.0 0.9 0.00 0.00 0.00 65 1016.2
20260508122439 60 315 0.0 0.0 0.00 0.00 0.00 64 1016.0
20260508121440 60 0 0.0 0.0 0.00 0.00 0.00 64 1015.9
20260508120441 61 180 0.0 0.0 0.00 0.00 0.00 65 1015.8
20260508115441 61 270 0.0 0.0 0.00 0.00 0.00 65 1015.6
20260508114442 61 315 0.0 0.9 0.00 0.00 0.00 65 1015.5
20260508113443 62 270 0.0 2.6 0.00 0.00 0.00 65 1015.5
20260508112444 62 315 0.0 1.7 0.00 0.00 0.00 65 1015.4
20260508111445 62 180 0.0 0.9 0.00 0.00 0.00 65 1015.2
20260508110445 62 225 0.0 0.9 0.00 0.00 0.00 65 1014.9
20260508105446 62 315 0.0 0.9 0.00 0.00 0.00 64 1014.7
20260508104447 63 225 0.9 2.6 0.00 0.00 0.00 63 1014.6
20260508103448 64 270 0.0 1.7 0.00 0.00 0.00 63 1014.4
20260508102448 64 270 0.0 1.7 0.00 0.00 0.00 62 1014.1
20260508101449 65 270 0.0 1.7 0.00 0.00 0.00 62 1013.9
20260508100450 65 270 0.0 1.7 0.00 0.00 0.00 61 1013.6
20260508095450 65 0 0.0 1.7 0.00 0.00 0.00 61 1013.4
20260508094451 66 270 0.9 1.7 0.00 0.00 0.00 60 1013.2
20260508093451 68 270 0.0 1.7 0.00 0.00 0.00 58 1013.0
20260508092452 69 0 0.0 1.7 0.00 0.00 0.00 57 1012.8
20260508091452 69 270 0.0 2.6 0.00 0.00 0.00 57 1012.7